Year,Month,Day,Hour,Minute,Value (Times are PST for windspeed in km/hr)
2011,03,01,00,00,0.00
2011,03,01,00,01,2.10
2011,03,01,00,02,2.60
2011,03,01,00,03,3.00
2011,03,01,00,04,2.20
2011,03,01,00,05,1.70
2011,03,01,00,06,0.00
2011,03,01,00,07,0.30
2011,03,01,00,08,0.10
2011,03,01,00,09,0.40
2011,03,01,00,10,1.40
2011,03,01,00,11,0.80
2011,03,01,00,12,0.60
2011,03,01,00,13,1.10
2011,03,01,00,14,0.40
2011,03,01,00,15,1.10
2011,03,01,00,16,1.00
2011,03,01,00,17,1.00
2011,03,01,00,18,0.00
2011,03,01,00,19,0.60
2011,03,01,00,20,1.20
2011,03,01,00,21,0.20
2011,03,01,00,22,0.00
2011,03,01,00,23,0.00
2011,03,01,00,24,0.10
2011,03,01,00,25,0.00
2011,03,01,00,26,0.00
2011,03,01,00,27,1.60
2011,03,01,00,28,2.50
2011,03,01,00,29,2.50
2011,03,01,00,30,0.10
2011,03,01,00,31,0.00
2011,03,01,00,32,0.60
2011,03,01,00,33,0.80
2011,03,01,00,34,1.50
2011,03,01,00,35,1.80
2011,03,01,00,36,2.90
2011,03,01,00,37,1.20
2011,03,01,00,38,1.40
2011,03,01,00,39,2.40
2011,03,01,00,40,3.40
2011,03,01,00,41,2.90
2011,03,01,00,42,1.10
2011,03,01,00,43,0.80
2011,03,01,00,44,2.40
2011,03,01,00,45,0.70
2011,03,01,00,46,3.40
2011,03,01,00,47,1.90
2011,03,01,00,48,0.20
2011,03,01,00,49,0.00
2011,03,01,00,50,0.00
2011,03,01,00,51,0.00
2011,03,01,00,52,0.00
2011,03,01,00,53,0.00
2011,03,01,00,54,1.20
2011,03,01,00,55,1.50
2011,03,01,00,56,5.10
2011,03,01,00,57,2.90
2011,03,01,00,58,3.90
2011,03,01,00,59,4.20
2011,03,01,01,00,6.10
2011,03,01,01,01,2.30
2011,03,01,01,02,5.00
2011,03,01,01,03,4.80
2011,03,01,01,04,3.50
2011,03,01,01,05,2.60
2011,03,01,01,06,2.80
2011,03,01,01,07,1.80
2011,03,01,01,08,1.00
2011,03,01,01,09,1.80
2011,03,01,01,10,0.10
2011,03,01,01,11,0.60
2011,03,01,01,12,2.00
2011,03,01,01,13,1.50
2011,03,01,01,14,0.80
2011,03,01,01,15,1.10
2011,03,01,01,16,1.00
2011,03,01,01,17,1.10
2011,03,01,01,18,1.10
2011,03,01,01,19,0.10
2011,03,01,01,20,0.10
2011,03,01,01,21,0.00
2011,03,01,01,22,1.70
2011,03,01,01,23,2.10
2011,03,01,01,24,0.40
2011,03,01,01,25,0.00
2011,03,01,01,26,0.00
2011,03,01,01,27,0.00
2011,03,01,01,28,0.00
2011,03,01,01,29,0.50
2011,03,01,01,30,1.30
2011,03,01,01,31,0.40
2011,03,01,01,32,0.70
2011,03,01,01,33,1.80
2011,03,01,01,34,1.10
2011,03,01,01,35,2.10
2011,03,01,01,36,1.80
2011,03,01,01,37,2.60
2011,03,01,01,38,1.60
2011,03,01,01,39,1.90
2011,03,01,01,40,0.10
2011,03,01,01,41,0.00
2011,03,01,01,42,0.00
2011,03,01,01,43,0.00
2011,03,01,01,44,0.00
2011,03,01,01,45,0.00
2011,03,01,01,46,0.00
2011,03,01,01,47,0.00
2011,03,01,01,48,0.30
2011,03,01,01,49,2.60
2011,03,01,01,50,2.10
2011,03,01,01,51,1.20
2011,03,01,01,52,0.00
2011,03,01,01,53,0.80
2011,03,01,01,54,2.30
2011,03,01,01,55,1.80
2011,03,01,01,56,1.60
2011,03,01,01,57,1.60
2011,03,01,01,58,1.70
2011,03,01,01,59,1.50
2011,03,01,02,00,1.80
2011,03,01,02,01,2.10
2011,03,01,02,02,2.10
2011,03,01,02,03,1.50
2011,03,01,02,04,1.50
2011,03,01,02,05,1.10
2011,03,01,02,06,1.90
2011,03,01,02,07,2.00
2011,03,01,02,08,1.40
2011,03,01,02,09,0.00
2011,03,01,02,10,1.70
2011,03,01,02,11,0.20
2011,03,01,02,12,0.00
2011,03,01,02,13,0.00
2011,03,01,02,14,0.00
2011,03,01,02,15,0.00
2011,03,01,02,16,0.00
2011,03,01,02,17,0.00
2011,03,01,02,18,0.00
2011,03,01,02,19,0.00
2011,03,01,02,20,0.00
2011,03,01,02,21,1.10
2011,03,01,02,22,0.00
2011,03,01,02,23,0.00
2011,03,01,02,24,0.00
2011,03,01,02,25,0.00
2011,03,01,02,26,0.00
2011,03,01,02,27,0.00
2011,03,01,02,28,0.00
2011,03,01,02,29,0.00
2011,03,01,02,30,0.50
2011,03,01,02,31,2.30
2011,03,01,02,32,2.40
2011,03,01,02,33,1.40
2011,03,01,02,34,0.30
2011,03,01,02,35,0.00
2011,03,01,02,36,0.00
2011,03,01,02,37,0.00
2011,03,01,02,38,0.00
2011,03,01,02,39,0.00
2011,03,01,02,40,0.10
2011,03,01,02,41,0.80
2011,03,01,02,42,1.80
2011,03,01,02,43,1.10
2011,03,01,02,44,2.40
2011,03,01,02,45,1.20
2011,03,01,02,46,4.20
2011,03,01,02,47,5.70
2011,03,01,02,48,5.30
2011,03,01,02,49,6.10
2011,03,01,02,50,5.30
2011,03,01,02,51,4.10
2011,03,01,02,52,4.80
2011,03,01,02,53,4.30
2011,03,01,02,54,4.50
2011,03,01,02,55,3.60
2011,03,01,02,56,3.70
2011,03,01,02,57,2.00
2011,03,01,02,58,1.70
2011,03,01,02,59,0.10
2011,03,01,03,00,0.00
2011,03,01,03,01,0.60
2011,03,01,03,02,3.00
2011,03,01,03,03,4.00
2011,03,01,03,04,4.40
2011,03,01,03,05,5.50
2011,03,01,03,06,5.00
2011,03,01,03,07,5.00
2011,03,01,03,08,4.70
2011,03,01,03,09,4.20
2011,03,01,03,10,3.50
2011,03,01,03,11,3.70
2011,03,01,03,12,3.20
2011,03,01,03,13,1.30
2011,03,01,03,14,2.40
2011,03,01,03,15,1.10
2011,03,01,03,16,3.40
2011,03,01,03,17,3.40
2011,03,01,03,18,3.30
2011,03,01,03,19,4.50
2011,03,01,03,20,3.80
2011,03,01,03,21,4.50
2011,03,01,03,22,3.30
2011,03,01,03,23,4.90
2011,03,01,03,24,3.50
2011,03,01,03,25,5.30
2011,03,01,03,26,4.00
2011,03,01,03,27,3.20
2011,03,01,03,28,2.50
2011,03,01,03,29,3.10
2011,03,01,03,30,1.80
2011,03,01,03,31,2.20
2011,03,01,03,32,2.60
2011,03,01,03,33,2.50
2011,03,01,03,34,3.90
2011,03,01,03,35,4.50
2011,03,01,03,36,4.00
2011,03,01,03,37,5.30
2011,03,01,03,38,3.30
2011,03,01,03,39,2.30
2011,03,01,03,40,2.30
2011,03,01,03,41,3.30
2011,03,01,03,42,3.10
2011,03,01,03,43,1.60
2011,03,01,03,44,0.60
2011,03,01,03,45,0.60
2011,03,01,03,46,0.30
2011,03,01,03,47,2.70
2011,03,01,03,48,2.50
2011,03,01,03,49,1.20
2011,03,01,03,50,2.70
2011,03,01,03,51,2.20
2011,03,01,03,52,0.10
2011,03,01,03,53,0.00
2011,03,01,03,54,0.60
2011,03,01,03,55,0.80
2011,03,01,03,56,0.20
2011,03,01,03,57,0.10
2011,03,01,03,58,0.10
2011,03,01,03,59,1.30
2011,03,01,04,00,2.30
2011,03,01,04,01,3.60
2011,03,01,04,02,3.90
2011,03,01,04,03,3.80
2011,03,01,04,04,4.00
2011,03,01,04,05,5.50
2011,03,01,04,06,5.40
2011,03,01,04,07,6.20
2011,03,01,04,08,4.90
2011,03,01,04,09,7.70
2011,03,01,04,10,5.10
2011,03,01,04,11,5.30
2011,03,01,04,12,4.90
2011,03,01,04,13,5.80
2011,03,01,04,14,2.20
2011,03,01,04,15,2.50
2011,03,01,04,16,3.80
2011,03,01,04,17,2.30
2011,03,01,04,18,1.10
2011,03,01,04,19,0.20
2011,03,01,04,20,0.00
2011,03,01,04,21,0.00
2011,03,01,04,22,0.00
2011,03,01,04,23,0.10
2011,03,01,04,24,0.00
2011,03,01,04,25,0.00
2011,03,01,04,26,0.00
2011,03,01,04,27,0.30
2011,03,01,04,28,0.80
2011,03,01,04,29,1.50
2011,03,01,04,30,3.80
2011,03,01,04,31,4.30
2011,03,01,04,32,4.50
2011,03,01,04,33,5.00
2011,03,01,04,34,5.80
2011,03,01,04,35,5.10
2011,03,01,04,36,6.20
2011,03,01,04,37,4.40
2011,03,01,04,38,7.70
2011,03,01,04,39,7.00
2011,03,01,04,40,7.60
2011,03,01,04,41,5.10
2011,03,01,04,42,3.40
2011,03,01,04,43,4.30
2011,03,01,04,44,4.50
2011,03,01,04,45,4.40
2011,03,01,04,46,4.80
2011,03,01,04,47,4.70
2011,03,01,04,48,3.10
2011,03,01,04,49,2.50
2011,03,01,04,50,3.30
2011,03,01,04,51,3.70
2011,03,01,04,52,2.10
2011,03,01,04,53,4.60
2011,03,01,04,54,4.30
2011,03,01,04,55,3.90
2011,03,01,04,56,5.10
2011,03,01,04,57,6.70
2011,03,01,04,58,4.80
2011,03,01,04,59,6.20
2011,03,01,05,00,4.90
2011,03,01,05,01,9.70
2011,03,01,05,02,8.70
2011,03,01,05,03,6.60
2011,03,01,05,04,5.10
2011,03,01,05,05,6.50
2011,03,01,05,06,5.50
2011,03,01,05,07,8.50
2011,03,01,05,08,10.40
2011,03,01,05,09,8.50
2011,03,01,05,10,4.60
2011,03,01,05,11,2.00
2011,03,01,05,12,4.70
2011,03,01,05,13,0.70
2011,03,01,05,14,2.40
2011,03,01,05,15,4.40
2011,03,01,05,16,5.20
2011,03,01,05,17,5.10
2011,03,01,05,18,3.80
2011,03,01,05,19,0.20
2011,03,01,05,20,2.60
2011,03,01,05,21,0.40
2011,03,01,05,22,4.80
2011,03,01,05,23,2.80
2011,03,01,05,24,3.80
2011,03,01,05,25,3.60
2011,03,01,05,26,2.60
2011,03,01,05,27,2.10
2011,03,01,05,28,8.60
2011,03,01,05,29,5.50
2011,03,01,05,30,3.40
2011,03,01,05,31,4.40
2011,03,01,05,32,2.80
2011,03,01,05,33,4.90
2011,03,01,05,34,8.20
2011,03,01,05,35,8.10
2011,03,01,05,36,5.00
2011,03,01,05,37,4.70
2011,03,01,05,38,7.20
2011,03,01,05,39,8.80
2011,03,01,05,40,6.70
2011,03,01,05,41,7.30
2011,03,01,05,42,11.30
2011,03,01,05,43,9.70
2011,03,01,05,44,13.90
2011,03,01,05,45,11.60
2011,03,01,05,46,8.70
2011,03,01,05,47,8.00
2011,03,01,05,48,8.60
2011,03,01,05,49,4.50
2011,03,01,05,50,4.10
2011,03,01,05,51,2.50
2011,03,01,05,52,4.30
2011,03,01,05,53,6.70
2011,03,01,05,54,8.30
2011,03,01,05,55,5.10
2011,03,01,05,56,7.80
2011,03,01,05,57,5.40
2011,03,01,05,58,4.40
2011,03,01,05,59,7.50
2011,03,01,06,00,10.70
2011,03,01,06,01,8.40
2011,03,01,06,02,7.60
2011,03,01,06,03,5.90
2011,03,01,06,04,5.60
2011,03,01,06,05,5.10
2011,03,01,06,06,6.60
2011,03,01,06,07,11.10
2011,03,01,06,08,6.80
2011,03,01,06,09,5.40
2011,03,01,06,10,4.10
2011,03,01,06,11,3.20
2011,03,01,06,12,6.70
2011,03,01,06,13,4.80
2011,03,01,06,14,2.50
2011,03,01,06,15,2.20
2011,03,01,06,16,3.60
2011,03,01,06,17,1.80
2011,03,01,06,18,3.30
2011,03,01,06,19,1.70
2011,03,01,06,20,1.50
2011,03,01,06,21,3.20
2011,03,01,06,22,1.40
2011,03,01,06,23,4.70
2011,03,01,06,24,4.20
2011,03,01,06,25,2.50
2011,03,01,06,26,3.10
2011,03,01,06,27,4.50
2011,03,01,06,28,8.80
2011,03,01,06,29,5.00
2011,03,01,06,30,4.10
2011,03,01,06,31,5.20
2011,03,01,06,32,5.30
2011,03,01,06,33,2.20
2011,03,01,06,34,2.20
2011,03,01,06,35,3.10
2011,03,01,06,36,5.70
2011,03,01,06,37,5.70
2011,03,01,06,38,4.70
2011,03,01,06,39,6.30
2011,03,01,06,40,6.50
2011,03,01,06,41,6.70
2011,03,01,06,42,5.40
2011,03,01,06,43,7.30
2011,03,01,06,44,5.40
2011,03,01,06,45,4.40
2011,03,01,06,46,5.00
2011,03,01,06,47,8.20
2011,03,01,06,48,5.80
2011,03,01,06,49,6.40
2011,03,01,06,50,9.20
2011,03,01,06,51,11.30
2011,03,01,06,52,7.60
2011,03,01,06,53,7.60
2011,03,01,06,54,9.50
2011,03,01,06,55,10.20
2011,03,01,06,56,8.80
2011,03,01,06,57,8.50
2011,03,01,06,58,11.70
2011,03,01,06,59,7.10
2011,03,01,07,00,6.60
2011,03,01,07,01,9.10
2011,03,01,07,02,8.60
2011,03,01,07,03,6.30
2011,03,01,07,04,6.50
2011,03,01,07,05,6.90
2011,03,01,07,06,6.60
2011,03,01,07,07,2.80
2011,03,01,07,08,6.40
2011,03,01,07,09,6.80
2011,03,01,07,10,6.10
2011,03,01,07,11,6.10
2011,03,01,07,12,4.50
2011,03,01,07,13,3.50
2011,03,01,07,14,6.40
2011,03,01,07,15,4.80
2011,03,01,07,16,5.00
2011,03,01,07,17,4.00
2011,03,01,07,18,4.30
2011,03,01,07,19,4.00
2011,03,01,07,20,3.60
2011,03,01,07,21,4.10
2011,03,01,07,22,5.70
2011,03,01,07,23,5.70
2011,03,01,07,24,2.80
2011,03,01,07,25,3.30
2011,03,01,07,26,2.70
2011,03,01,07,27,2.00
2011,03,01,07,28,2.30
2011,03,01,07,29,2.30
2011,03,01,07,30,1.50
2011,03,01,07,31,2.60
2011,03,01,07,32,2.60
2011,03,01,07,33,0.80
2011,03,01,07,34,0.60
2011,03,01,07,35,0.70
2011,03,01,07,36,4.30
2011,03,01,07,37,4.90
2011,03,01,07,38,5.30
2011,03,01,07,39,5.00
2011,03,01,07,40,2.80
2011,03,01,07,41,3.40
2011,03,01,07,42,2.30
2011,03,01,07,43,2.10
2011,03,01,07,44,2.00
2011,03,01,07,45,3.60
2011,03,01,07,46,2.00
2011,03,01,07,47,2.60
2011,03,01,07,48,2.30
2011,03,01,07,49,1.10
2011,03,01,07,50,2.70
2011,03,01,07,51,2.00
2011,03,01,07,52,2.60
2011,03,01,07,53,3.20
2011,03,01,07,54,3.70
2011,03,01,07,55,3.90
2011,03,01,07,56,4.30
2011,03,01,07,57,4.00
2011,03,01,07,58,4.50
2011,03,01,07,59,5.10
2011,03,01,08,00,4.50
2011,03,01,08,01,4.70
2011,03,01,08,02,2.70
2011,03,01,08,03,2.00
2011,03,01,08,04,3.40
2011,03,01,08,05,4.40
2011,03,01,08,06,4.40
2011,03,01,08,07,3.50
2011,03,01,08,08,1.50
2011,03,01,08,09,5.60
2011,03,01,08,10,8.40
2011,03,01,08,11,6.00
2011,03,01,08,12,5.90
2011,03,01,08,13,6.80
2011,03,01,08,14,5.10
2011,03,01,08,15,8.10
2011,03,01,08,16,7.80
2011,03,01,08,17,5.10
2011,03,01,08,18,7.80
2011,03,01,08,19,6.40
2011,03,01,08,20,5.50
2011,03,01,08,21,5.50
2011,03,01,08,22,4.80
2011,03,01,08,23,2.80
2011,03,01,08,24,5.90
2011,03,01,08,25,4.40
2011,03,01,08,26,4.60
2011,03,01,08,27,4.30
2011,03,01,08,28,7.50
2011,03,01,08,29,5.90
2011,03,01,08,30,5.90
2011,03,01,08,31,7.40
2011,03,01,08,32,8.10
2011,03,01,08,33,8.50
2011,03,01,08,34,6.10
2011,03,01,08,35,6.10
2011,03,01,08,36,3.80
2011,03,01,08,37,5.60
2011,03,01,08,38,4.60
2011,03,01,08,39,5.70
2011,03,01,08,40,3.00
2011,03,01,08,41,2.70
2011,03,01,08,42,4.20
2011,03,01,08,43,3.80
2011,03,01,08,44,4.90
2011,03,01,08,45,3.90
2011,03,01,08,46,1.20
2011,03,01,08,47,1.00
2011,03,01,08,48,1.10
2011,03,01,08,49,3.70
2011,03,01,08,50,2.50
2011,03,01,08,51,2.50
2011,03,01,08,52,2.00
2011,03,01,08,53,2.60
2011,03,01,08,54,2.40
2011,03,01,08,55,2.20
2011,03,01,08,56,3.40
2011,03,01,08,57,3.40
2011,03,01,08,58,1.60
2011,03,01,08,59,1.50
2011,03,01,09,00,1.60
2011,03,01,09,01,1.90
2011,03,01,09,02,2.40
2011,03,01,09,03,1.20
2011,03,01,09,04,2.90
2011,03,01,09,05,3.70
2011,03,01,09,06,4.60
2011,03,01,09,07,2.80
2011,03,01,09,08,5.70
2011,03,01,09,09,6.40
2011,03,01,09,10,5.00
2011,03,01,09,11,6.10
2011,03,01,09,12,6.10
2011,03,01,09,13,6.20
2011,03,01,09,14,4.70
2011,03,01,09,15,4.80
2011,03,01,09,16,5.60
2011,03,01,09,17,4.00
2011,03,01,09,18,4.40
2011,03,01,09,19,5.50
2011,03,01,09,20,7.30
2011,03,01,09,21,5.20
2011,03,01,09,22,6.60
2011,03,01,09,23,9.00
2011,03,01,09,24,8.30
2011,03,01,09,25,6.20
2011,03,01,09,26,5.90
2011,03,01,09,27,4.60
2011,03,01,09,28,7.80
2011,03,01,09,29,7.40
2011,03,01,09,30,6.20
2011,03,01,09,31,6.30
2011,03,01,09,32,7.00
2011,03,01,09,33,7.40
2011,03,01,09,34,6.40
2011,03,01,09,35,6.20
2011,03,01,09,36,6.70
2011,03,01,09,37,8.80
2011,03,01,09,38,10.40
2011,03,01,09,39,9.90
2011,03,01,09,40,10.60
2011,03,01,09,41,11.30
2011,03,01,09,42,8.30
2011,03,01,09,43,7.90
2011,03,01,09,44,7.20
2011,03,01,09,45,5.50
2011,03,01,09,46,6.30
2011,03,01,09,47,7.00
2011,03,01,09,48,5.00
2011,03,01,09,49,6.50
2011,03,01,09,50,7.40
2011,03,01,09,51,8.70
2011,03,01,09,52,7.40
2011,03,01,09,53,4.40
2011,03,01,09,54,4.40
2011,03,01,09,55,6.10
2011,03,01,09,56,7.00
2011,03,01,09,57,5.30
2011,03,01,09,58,3.20
2011,03,01,09,59,3.30
2011,03,01,10,00,8.10
2011,03,01,10,01,4.10
2011,03,01,10,02,4.10
2011,03,01,10,03,4.00
2011,03,01,10,04,3.90
2011,03,01,10,05,6.20
2011,03,01,10,06,4.40
2011,03,01,10,07,6.30
2011,03,01,10,08,5.50
2011,03,01,10,09,7.10
2011,03,01,10,10,5.00
2011,03,01,10,11,2.90
2011,03,01,10,12,3.80
2011,03,01,10,13,5.60
2011,03,01,10,14,7.80
2011,03,01,10,15,7.30
2011,03,01,10,16,8.30
2011,03,01,10,17,9.40
2011,03,01,10,18,10.20
2011,03,01,10,19,9.30
2011,03,01,10,20,12.50
2011,03,01,10,21,10.60
2011,03,01,10,22,10.20
2011,03,01,10,23,7.90
2011,03,01,10,24,6.30
2011,03,01,10,25,5.70
2011,03,01,10,26,9.20
2011,03,01,10,27,7.30
2011,03,01,10,28,13.70
2011,03,01,10,29,9.80
2011,03,01,10,30,7.50
2011,03,01,10,31,12.00
2011,03,01,10,32,8.00
2011,03,01,10,33,7.60
2011,03,01,10,34,10.70
2011,03,01,10,35,11.70
2011,03,01,10,36,15.10
2011,03,01,10,37,13.70
2011,03,01,10,38,10.50
2011,03,01,10,39,7.80
2011,03,01,10,40,9.70
2011,03,01,10,41,11.00
2011,03,01,10,42,15.00
2011,03,01,10,43,17.70
2011,03,01,10,44,10.90
2011,03,01,10,45,12.50
2011,03,01,10,46,10.60
2011,03,01,10,47,8.20
2011,03,01,10,48,8.30
2011,03,01,10,49,8.70
2011,03,01,10,50,11.70
2011,03,01,10,51,13.90
2011,03,01,10,52,8.70
2011,03,01,10,53,9.20
2011,03,01,10,54,9.80
2011,03,01,10,55,13.20
2011,03,01,10,56,11.00
2011,03,01,10,57,8.10
2011,03,01,10,58,11.50
2011,03,01,10,59,11.90
2011,03,01,11,00,13.60
2011,03,01,11,01,16.70
2011,03,01,11,02,14.90
2011,03,01,11,03,13.90
2011,03,01,11,04,17.20
2011,03,01,11,05,14.10
2011,03,01,11,06,14.30
2011,03,01,11,07,14.20
2011,03,01,11,08,10.80
2011,03,01,11,09,10.70
2011,03,01,11,10,13.60
2011,03,01,11,11,10.00
2011,03,01,11,12,10.00
2011,03,01,11,13,16.70
2011,03,01,11,14,14.70
2011,03,01,11,15,10.40
2011,03,01,11,16,10.20
2011,03,01,11,17,14.90
2011,03,01,11,18,11.00
2011,03,01,11,19,11.50
2011,03,01,11,20,8.20
2011,03,01,11,21,9.50
2011,03,01,11,22,14.00
2011,03,01,11,23,10.70
2011,03,01,11,24,14.00
2011,03,01,11,25,15.80
2011,03,01,11,26,10.00
2011,03,01,11,27,10.70
2011,03,01,11,28,10.20
2011,03,01,11,29,11.70
2011,03,01,11,30,9.60
2011,03,01,11,31,7.90
2011,03,01,11,32,11.10
2011,03,01,11,33,11.30
2011,03,01,11,34,9.90
2011,03,01,11,35,11.70
2011,03,01,11,36,8.80
2011,03,01,11,37,10.50
2011,03,01,11,38,5.50
2011,03,01,11,39,6.20
2011,03,01,11,40,10.20
2011,03,01,11,41,14.60
2011,03,01,11,42,8.90
2011,03,01,11,43,12.20
2011,03,01,11,44,12.80
2011,03,01,11,45,11.80
2011,03,01,11,46,8.10
2011,03,01,11,47,10.50
2011,03,01,11,48,8.70
2011,03,01,11,49,12.10
2011,03,01,11,50,15.50
2011,03,01,11,51,13.00
2011,03,01,11,52,10.20
2011,03,01,11,53,7.20
2011,03,01,11,54,7.90
2011,03,01,11,55,9.70
2011,03,01,11,56,13.40
2011,03,01,11,57,18.40
2011,03,01,11,58,12.70
2011,03,01,11,59,12.30
2011,03,01,12,00,11.20
2011,03,01,12,01,15.00
2011,03,01,12,02,12.90
2011,03,01,12,03,9.60
2011,03,01,12,04,6.40
2011,03,01,12,05,4.90
2011,03,01,12,06,7.80
2011,03,01,12,07,9.60
2011,03,01,12,08,9.80
2011,03,01,12,09,11.30
2011,03,01,12,10,10.50
2011,03,01,12,11,9.30
2011,03,01,12,12,7.20
2011,03,01,12,13,9.90
2011,03,01,12,14,12.20
2011,03,01,12,15,12.50
2011,03,01,12,16,13.30
2011,03,01,12,17,16.00
2011,03,01,12,18,12.90
2011,03,01,12,19,8.60
2011,03,01,12,20,11.80
2011,03,01,12,21,16.90
2011,03,01,12,22,14.30
2011,03,01,12,23,11.40
2011,03,01,12,24,8.20
2011,03,01,12,25,14.80
2011,03,01,12,26,12.20
2011,03,01,12,27,11.70
2011,03,01,12,28,15.40
2011,03,01,12,29,15.40
2011,03,01,12,30,15.10
2011,03,01,12,31,9.70
2011,03,01,12,32,6.20
2011,03,01,12,33,10.40
2011,03,01,12,34,12.00
2011,03,01,12,35,14.20
2011,03,01,12,36,15.10
2011,03,01,12,37,12.00
2011,03,01,12,38,11.50
2011,03,01,12,39,9.70
2011,03,01,12,40,12.20
2011,03,01,12,41,15.40
2011,03,01,12,42,14.20
2011,03,01,12,43,10.60
2011,03,01,12,44,9.00
2011,03,01,12,45,17.90
2011,03,01,12,46,10.40
2011,03,01,12,47,9.50
2011,03,01,12,48,11.10
2011,03,01,12,49,11.70
2011,03,01,12,50,11.80
2011,03,01,12,51,12.20
2011,03,01,12,52,8.70
2011,03,01,12,53,6.10
2011,03,01,12,54,14.10
2011,03,01,12,55,15.00
2011,03,01,12,56,10.30
2011,03,01,12,57,8.60
2011,03,01,12,58,11.30
2011,03,01,12,59,10.00
2011,03,01,13,00,16.50
2011,03,01,13,01,10.20
2011,03,01,13,02,8.50
2011,03,01,13,03,9.30
2011,03,01,13,04,8.60
2011,03,01,13,05,13.20
2011,03,01,13,06,6.80
2011,03,01,13,07,8.80
2011,03,01,13,08,12.90
2011,03,01,13,09,9.00
2011,03,01,13,10,10.10
2011,03,01,13,11,7.30
2011,03,01,13,12,8.10
2011,03,01,13,13,12.90
2011,03,01,13,14,17.50
2011,03,01,13,15,15.20
2011,03,01,13,16,14.00
2011,03,01,13,17,11.50
2011,03,01,13,18,12.00
2011,03,01,13,19,13.80
2011,03,01,13,20,12.60
2011,03,01,13,21,16.90
2011,03,01,13,22,17.90
2011,03,01,13,23,10.40
2011,03,01,13,24,12.00
2011,03,01,13,25,10.30
2011,03,01,13,26,14.00
2011,03,01,13,27,17.40
2011,03,01,13,28,14.60
2011,03,01,13,29,8.60
2011,03,01,13,30,12.80
2011,03,01,13,31,13.30
2011,03,01,13,32,12.70
2011,03,01,13,33,9.70
2011,03,01,13,34,8.90
2011,03,01,13,35,9.50
2011,03,01,13,36,10.60
2011,03,01,13,37,10.80
2011,03,01,13,38,8.30
2011,03,01,13,39,12.70
2011,03,01,13,40,11.70
2011,03,01,13,41,9.30
2011,03,01,13,42,11.30
2011,03,01,13,43,11.50
2011,03,01,13,44,12.60
2011,03,01,13,45,13.90
2011,03,01,13,46,15.30
2011,03,01,13,47,18.20
2011,03,01,13,48,11.80
2011,03,01,13,49,11.30
2011,03,01,13,50,13.80
2011,03,01,13,51,16.20
2011,03,01,13,52,11.30
2011,03,01,13,53,9.30
2011,03,01,13,54,11.40
2011,03,01,13,55,13.90
2011,03,01,13,56,9.70
2011,03,01,13,57,10.30
2011,03,01,13,58,15.20
2011,03,01,13,59,14.80
2011,03,01,14,00,18.50
2011,03,01,14,01,18.40
2011,03,01,14,02,16.40
2011,03,01,14,03,17.80
2011,03,01,14,04,18.90
2011,03,01,14,05,12.40
2011,03,01,14,06,13.20
2011,03,01,14,07,14.40
2011,03,01,14,08,14.50
2011,03,01,14,09,9.50
2011,03,01,14,10,6.70
2011,03,01,14,11,7.60
2011,03,01,14,12,13.30
2011,03,01,14,13,16.40
2011,03,01,14,14,17.70
2011,03,01,14,15,16.50
2011,03,01,14,16,13.60
2011,03,01,14,17,14.70
2011,03,01,14,18,20.20
2011,03,01,14,19,11.60
2011,03,01,14,20,14.90
2011,03,01,14,21,13.10
2011,03,01,14,22,9.60
2011,03,01,14,23,13.10
2011,03,01,14,24,15.60
2011,03,01,14,25,14.90
2011,03,01,14,26,20.20
2011,03,01,14,27,13.20
2011,03,01,14,28,13.90
2011,03,01,14,29,15.00
2011,03,01,14,30,17.40
2011,03,01,14,31,16.80
2011,03,01,14,32,15.70
2011,03,01,14,33,20.00
2011,03,01,14,34,14.00
2011,03,01,14,35,8.90
2011,03,01,14,36,10.80
2011,03,01,14,37,11.40
2011,03,01,14,38,12.40
2011,03,01,14,39,17.90
2011,03,01,14,40,12.70
2011,03,01,14,41,16.80
2011,03,01,14,42,12.90
2011,03,01,14,43,10.20
2011,03,01,14,44,13.30
2011,03,01,14,45,15.70
2011,03,01,14,46,12.10
2011,03,01,14,47,12.00
2011,03,01,14,48,10.50
2011,03,01,14,49,15.40
2011,03,01,14,50,14.60
2011,03,01,14,51,14.10
2011,03,01,14,52,11.80
2011,03,01,14,53,13.60
2011,03,01,14,54,13.60
2011,03,01,14,55,10.00
2011,03,01,14,56,14.60
2011,03,01,14,57,11.40
2011,03,01,14,58,12.50
2011,03,01,14,59,15.00
2011,03,01,15,00,16.10
2011,03,01,15,01,14.50
2011,03,01,15,02,16.90
2011,03,01,15,03,11.00
2011,03,01,15,04,14.30
2011,03,01,15,05,14.60
2011,03,01,15,06,10.80
2011,03,01,15,07,12.70
2011,03,01,15,08,17.90
2011,03,01,15,09,17.10
2011,03,01,15,10,13.60
2011,03,01,15,11,15.30
2011,03,01,15,12,13.70
2011,03,01,15,13,14.90
2011,03,01,15,14,18.80
2011,03,01,15,15,17.10
2011,03,01,15,16,16.80
2011,03,01,15,17,16.10
2011,03,01,15,18,17.10
2011,03,01,15,19,13.70
2011,03,01,15,20,11.50
2011,03,01,15,21,11.70
2011,03,01,15,22,13.70
2011,03,01,15,23,19.70
2011,03,01,15,24,15.50
2011,03,01,15,25,16.20
2011,03,01,15,26,8.40
2011,03,01,15,27,10.00
2011,03,01,15,28,14.80
2011,03,01,15,29,17.00
2011,03,01,15,30,11.30
2011,03,01,15,31,13.60
2011,03,01,15,32,12.30
2011,03,01,15,33,11.10
2011,03,01,15,34,7.00
2011,03,01,15,35,9.90
2011,03,01,15,36,12.40
2011,03,01,15,37,11.80
2011,03,01,15,38,16.00
2011,03,01,15,39,13.40
2011,03,01,15,40,16.20
2011,03,01,15,41,16.40
2011,03,01,15,42,16.60
2011,03,01,15,43,20.60
2011,03,01,15,44,17.10
2011,03,01,15,45,13.90
2011,03,01,15,46,17.70
2011,03,01,15,47,19.10
2011,03,01,15,48,12.10
2011,03,01,15,49,17.10
2011,03,01,15,50,14.60
2011,03,01,15,51,13.60
2011,03,01,15,52,9.40
2011,03,01,15,53,13.10
2011,03,01,15,54,12.10
2011,03,01,15,55,14.80
2011,03,01,15,56,9.40
2011,03,01,15,57,11.60
2011,03,01,15,58,15.00
2011,03,01,15,59,16.00
2011,03,01,16,00,11.20
2011,03,01,16,01,15.40
2011,03,01,16,02,14.00
2011,03,01,16,03,17.50
2011,03,01,16,04,21.50
2011,03,01,16,05,18.80
2011,03,01,16,06,16.20
2011,03,01,16,07,11.40
2011,03,01,16,08,16.20
2011,03,01,16,09,14.00
2011,03,01,16,10,19.00
2011,03,01,16,11,14.40
2011,03,01,16,12,12.40
2011,03,01,16,13,10.30
2011,03,01,16,14,12.90
2011,03,01,16,15,12.50
2011,03,01,16,16,9.90
2011,03,01,16,17,16.10
2011,03,01,16,18,13.70
2011,03,01,16,19,18.10
2011,03,01,16,20,15.80
2011,03,01,16,21,17.80
2011,03,01,16,22,13.30
2011,03,01,16,23,20.80
2011,03,01,16,24,16.00
2011,03,01,16,25,8.90
2011,03,01,16,26,7.00
2011,03,01,16,27,13.50
2011,03,01,16,28,15.70
2011,03,01,16,29,15.00
2011,03,01,16,30,13.10
2011,03,01,16,31,14.30
2011,03,01,16,32,18.10
2011,03,01,16,33,14.30
2011,03,01,16,34,20.40
2011,03,01,16,35,16.40
2011,03,01,16,36,15.80
2011,03,01,16,37,10.60
2011,03,01,16,38,10.20
2011,03,01,16,39,13.40
2011,03,01,16,40,10.00
2011,03,01,16,41,15.20
2011,03,01,16,42,12.60
2011,03,01,16,43,13.90
2011,03,01,16,44,13.10
2011,03,01,16,45,15.40
2011,03,01,16,46,11.70
2011,03,01,16,47,7.40
2011,03,01,16,48,11.40
2011,03,01,16,49,15.90
2011,03,01,16,50,18.90
2011,03,01,16,51,13.50
2011,03,01,16,52,17.60
2011,03,01,16,53,12.10
2011,03,01,16,54,20.60
2011,03,01,16,55,15.40
2011,03,01,16,56,11.80
2011,03,01,16,57,12.00
2011,03,01,16,58,11.30
2011,03,01,16,59,13.90
2011,03,01,17,00,8.70
2011,03,01,17,01,17.60
2011,03,01,17,02,16.00
2011,03,01,17,03,19.70
2011,03,01,17,04,19.60
2011,03,01,17,05,21.10
2011,03,01,17,06,21.80
2011,03,01,17,07,16.80
2011,03,01,17,08,10.50
2011,03,01,17,09,9.40
2011,03,01,17,10,16.30
2011,03,01,17,11,14.10
2011,03,01,17,12,17.60
2011,03,01,17,13,20.30
2011,03,01,17,14,18.10
2011,03,01,17,15,12.60
2011,03,01,17,16,13.80
2011,03,01,17,17,9.30
2011,03,01,17,18,14.00
2011,03,01,17,19,10.10
2011,03,01,17,20,17.70
2011,03,01,17,21,17.40
2011,03,01,17,22,18.00
2011,03,01,17,23,16.70
2011,03,01,17,24,14.90
2011,03,01,17,25,8.70
2011,03,01,17,26,15.10
2011,03,01,17,27,12.10
2011,03,01,17,28,17.10
2011,03,01,17,29,18.50
2011,03,01,17,30,11.80
2011,03,01,17,31,14.90
2011,03,01,17,32,15.20
2011,03,01,17,33,15.90
2011,03,01,17,34,11.90
2011,03,01,17,35,14.60
2011,03,01,17,36,11.50
2011,03,01,17,37,17.10
2011,03,01,17,38,16.00
2011,03,01,17,39,16.90
2011,03,01,17,40,12.10
2011,03,01,17,41,16.10
2011,03,01,17,42,16.20
2011,03,01,17,43,9.70
2011,03,01,17,44,10.30
2011,03,01,17,45,12.80
2011,03,01,17,46,10.40
2011,03,01,17,47,14.80
2011,03,01,17,48,14.20
2011,03,01,17,49,17.80